This demonstration page uses our WeatherBlox Daily Observations layout. Learn more.

Left ArrowRight Arrow

41.12389, -100.76542

Hourly Observations for January 15, 2019

Temp ( °F °C ) Dew Point ( °F °C ) Humidity (%) Winds ( mph kmh ) Pressure ( in mb ) Visibility ( mi km ) Precip ( " mm )
12:53 am 00:53 Clear 17 -8.3 13 -10.6 84 84 WNW 3 6 30.21 1023 10 16 0.00 0.00
1:53 am 01:53 Clear 18 -7.8 15 -9.4 88 88 NNW 5 7 30.19 1022 10 16 0.00 0.00
2:53 am 02:53 Clear 15 -9.4 13 -10.6 91 91 NNW 6 9 30.17 1022 10 16 0.00 0.00
3:53 am 03:53 Clear 16 -8.9 13 -10.6 88 88 NNW 6 9 30.17 1022 10 16 0.00 0.00
4:53 am 04:53 Clear 14 -10 11 -11.7 88 88 NNW 6 9 30.16 1022 10 16 0.00 0.00
5:53 am 05:53 Clear 14 -10 10 -12.2 84 84 NNW 5 7 30.17 1022 10 16 0.00 0.00
6:53 am 06:53 Clear 16 -8.9 12 -11.1 84 84 NNW 7 11 30.19 1022 10 16 0.00 0.00
7:53 am 07:53 Clear 15 -9.4 12 -11.1 88 88 NNW 6 9 30.20 1023 10 16 0.00 0.00
8:53 am 08:53 Sunny 19 -7.2 15 -9.4 84 84 NW 5 7 30.19 1022 10 16 0.00 0.00
9:53 am 09:53 Sunny 27 -2.8 22 -5.6 81 81 NNW 7 11 30.19 1022 10 16 0.00 0.00
10:53 am 10:53 Sunny 36 2.2 25 -3.9 64 64 WNW 8 13 30.18 1022 10 16 0.00 0.00
11:53 am 11:53 Sunny 42 5.6 21 -6.1 43 43 WNW 15 24 30.16 1021 10 16 0.00 0.00
12:53 pm 12:53 Sunny 47 8.3 21 -6.1 36 36 NW 9 15 30.11 1020 10 16 0.00 0.00
1:53 pm 13:53 Sunny 54 12.2 18 -7.8 24 24 NNW 14 22 30.08 1019 10 16 0.00 0.00
2:53 pm 14:53 Sunny 55 12.8 16 -8.9 21 21 N 9 15 30.07 1018 10 16 0.00 0.00
3:53 pm 15:53 Sunny 55 12.8 15 -9.4 20 20 NNE 10 17 30.08 1019 10 16 0.00 0.00
4:53 pm 16:53 Sunny 51 10.6 15 -9.4 24 24 NE 8 13 30.10 1019 10 16 0.00 0.00
5:53 pm 17:53 Clear 38 3.3 15 -9.4 39 39 Calm 30.14 1021 10 16 0.00 0.00
6:53 pm 18:53 Clear 37 2.8 19 -7.2 48 48 NNE 9 15 30.17 1022 10 16 0.00 0.00
7:53 pm 19:53 Clear 32 0 18 -7.8 56 56 ENE 7 11 30.20 1023 10 16 0.00 0.00
8:53 pm 20:53 Clear 30 -1.1 19 -7.2 64 64 NE 7 11 30.21 1023 10 16 0.00 0.00
9:53 pm 21:53 Clear 26 -3.3 18 -7.8 71 71 VRB 5 7 30.20 1023 10 16 0.00 0.00
10:53 pm 22:53 Clear 27 -2.8 20 -6.7 75 75 VRB 3 6 30.21 1023 10 16 0.00 0.00
11:53 pm 23:53 Clear 22 -5.6 19 -7.2 89 89 E 3 6 30.21 1023 10 16 0.00 0.00

Powered by AerisWeather